• In Österreich
  • Länderverzeichnis
  • Für 7 Tage
  • Wassertemperatur
  • Satellitenkarten
  • Wetterkarte
  • News
  • Widgets
  • user-avatar
    Anmelden

    Stündliche Wetter Turgutlu

    Heute, 20 Januar, Samstag

    Zeit Temperatur Niederschläge Wind Luftdruck Luftfeuchtigkeit
    00:00 +4°C° 0 mm 2 m/S 755 mmHg 48%
    01:00 +4°C° 0 mm 2 m/S 755 mmHg 48%
    02:00 +4°C° 0 mm 2 m/S 755 mmHg 48%
    03:00 +4°C° 0 mm 2 m/S 754 mmHg 48%
    04:00 +4°C° 0 mm 2 m/S 754 mmHg 48%
    05:00 +4°C° 0 mm 2 m/S 754 mmHg 47%
    06:00 +4°C° 0 mm 2 m/S 754 mmHg 47%
    07:00 +4°C° 0 mm 2 m/S 754 mmHg 47%
    08:00 +5°C° 0 mm 2 m/S 755 mmHg 48%
    09:00 +7°C° 0 mm 2 m/S 754 mmHg 49%
    10:00 +9°C° 0 mm 2 m/S 754 mmHg 49%
    11:00 +11°C° 0 mm 3 m/S 754 mmHg 50%
    12:00 +12°C° 0 mm 3 m/S 754 mmHg 56%
    13:00 +13°C° 0 mm 3 m/S 753 mmHg 63%
    14:00 +13°C° 0 mm 3 m/S 753 mmHg 70%
    15:00 +13°C° 0,1 mm 3 m/S 753 mmHg 75%
    16:00 +12°C° 0,1 mm 3 m/S 753 mmHg 81%
    17:00 +11°C° 0,1 mm 3 m/S 753 mmHg 87%
    18:00 +11°C° 0,1 mm 3 m/S 753 mmHg 88%
    19:00 +10°C° 0,1 mm 3 m/S 753 mmHg 90%
    20:00 +10°C° 0,1 mm 3 m/S 753 mmHg 91%
    21:00 +10°C° 0 mm 3 m/S 753 mmHg 92%
    22:00 +9°C° 0 mm 3 m/S 753 mmHg 92%
    23:00 +9°C° 0 mm 3 m/S 753 mmHg 92%

    Morgen, 21 Januar, Sonntag

    Zeit Temperatur Niederschläge Wind Luftdruck Luftfeuchtigkeit
    00:00 +9°C° 0 mm 3 m/S 753 mmHg 92%
    01:00 +9°C° 0 mm 3 m/S 753 mmHg 92%
    02:00 +9°C° 0 mm 2 m/S 753 mmHg 91%
    03:00 +9°C° 0 mm 2 m/S 753 mmHg 92%
    04:00 +9°C° 0 mm 2 m/S 753 mmHg 92%
    05:00 +9°C° 0 mm 2 m/S 753 mmHg 92%
    06:00 +9°C° 0 mm 2 m/S 752 mmHg 92%
    07:00 +9°C° 0 mm 2 m/S 752 mmHg 91%
    08:00 +9°C° 0 mm 2 m/S 752 mmHg 91%
    09:00 +10°C° 0 mm 3 m/S 752 mmHg 85%
    10:00 +12°C° 0 mm 4 m/S 752 mmHg 80%
    11:00 +13°C° 0 mm 4 m/S 751 mmHg 74%
    12:00 +14°C° 0,1 mm 4 m/S 751 mmHg 72%
    13:00 +14°C° 0,1 mm 5 m/S 750 mmHg 70%
    14:00 +15°C° 0,1 mm 5 m/S 749 mmHg 69%
    15:00 +14°C° 0,1 mm 5 m/S 748 mmHg 71%
    16:00 +13°C° 0,1 mm 4 m/S 748 mmHg 74%
    17:00 +12°C° 0,1 mm 4 m/S 747 mmHg 76%
    18:00 +12°C° 0 mm 3 m/S 747 mmHg 79%
    19:00 +11°C° 0 mm 3 m/S 747 mmHg 81%
    20:00 +11°C° 0 mm 3 m/S 746 mmHg 83%
    21:00 +10°C° 0,1 mm 3 m/S 746 mmHg 84%
    22:00 +10°C° 0,1 mm 3 m/S 745 mmHg 85%
    23:00 +10°C° 0,1 mm 3 m/S 745 mmHg 86%

    übermorgen, 22 Januar, Montag

    Zeit Temperatur Niederschläge Wind Luftdruck Luftfeuchtigkeit
    00:00 +10°C° 0,7 mm 3 m/S 744 mmHg 88%
    01:00 +10°C° 0,7 mm 3 m/S 743 mmHg 89%
    02:00 +10°C° 0,7 mm 3 m/S 743 mmHg 90%
    03:00 +10°C° 0,9 mm 3 m/S 742 mmHg 91%
    04:00 +10°C° 0,9 mm 2 m/S 741 mmHg 92%
    05:00 +9°C° 0,9 mm 2 m/S 741 mmHg 93%
    06:00 +9°C° 0,9 mm 2 m/S 741 mmHg 93%
    07:00 +9°C° 0,9 mm 2 m/S 741 mmHg 93%
    08:00 +9°C° 0,9 mm 2 m/S 741 mmHg 93%
    09:00 +10°C° 1 mm 2 m/S 741 mmHg 91%
    10:00 +10°C° 1 mm 2 m/S 742 mmHg 89%
    11:00 +12°C° 1 mm 2 m/S 742 mmHg 86%
    12:00 +11°C° 0,4 mm 3 m/S 742 mmHg 83%
    13:00 +11°C° 0,4 mm 3 m/S 743 mmHg 79%
    14:00 +11°C° 0,4 mm 4 m/S 743 mmHg 75%
    15:00 +10°C° 0,6 mm 4 m/S 743 mmHg 78%
    16:00 +8°C° 0,6 mm 4 m/S 744 mmHg 81%
    17:00 +7°C° 0,6 mm 4 m/S 745 mmHg 84%
    18:00 +6°C° 0,2 mm 4 m/S 745 mmHg 84%
    19:00 +6°C° 0,2 mm 4 m/S 746 mmHg 85%
    20:00 +5°C° 0,2 mm 4 m/S 747 mmHg 85%
    21:00 +5°C° 0,1 mm 4 m/S 748 mmHg 86%
    22:00 +5°C° 0,1 mm 4 m/S 748 mmHg 86%
    23:00 +4°C° 0,1 mm 4 m/S 749 mmHg 86%

    23 Januar, Dienstag

    Zeit Temperatur Niederschläge Wind Luftdruck Luftfeuchtigkeit
    00:00 +4°C° 0 mm 4 m/S 749 mmHg 86%
    01:00 +3°C° 0 mm 4 m/S 750 mmHg 86%
    02:00 +3°C° 0 mm 4 m/S 750 mmHg 86%
    03:00 +1°C° 0 mm 4 m/S 750 mmHg 86%
    04:00 +2°C° 0 mm 3 m/S 751 mmHg 87%
    05:00 +1°C° 0 mm 3 m/S 751 mmHg 88%
    06:00 +1°C° 0 mm 3 m/S 752 mmHg 87%
    07:00 +1°C° 0 mm 3 m/S 753 mmHg 87%
    08:00 +1°C° 0 mm 3 m/S 753 mmHg 87%
    09:00 +2°C° 0 mm 3 m/S 754 mmHg 80%
    10:00 +3°C° 0 mm 4 m/S 754 mmHg 72%
    11:00 +5°C° 0 mm 4 m/S 754 mmHg 65%
    12:00 +5°C° 0 mm 4 m/S 754 mmHg 62%
    13:00 +5°C° 0 mm 5 m/S 755 mmHg 59%
    14:00 +6°C° 0 mm 5 m/S 755 mmHg 57%
    15:00 +5°C° 0 mm 5 m/S 755 mmHg 60%
    16:00 +3°C° 0 mm 5 m/S 755 mmHg 63%
    17:00 +3°C° 0 mm 4 m/S 756 mmHg 66%
    18:00 +1°C° 0 mm 4 m/S 756 mmHg 71%
    19:00 0°C° 0 mm 4 m/S 757 mmHg 76%
    20:00 0°C° 0 mm 3 m/S 758 mmHg 80%
    21:00 0°C° 0 mm 3 m/S 758 mmHg 82%
    22:00 0°C° 0 mm 3 m/S 758 mmHg 83%
    23:00 0°C° 0 mm 3 m/S 759 mmHg 84%

    24 Januar, Mittwoch

    Zeit Temperatur Niederschläge Wind Luftdruck Luftfeuchtigkeit
    00:00 0°C° 0 mm 3 m/S 759 mmHg 83%
    01:00 0°C° 0 mm 3 m/S 759 mmHg 83%
    02:00 0°C° 0 mm 3 m/S 759 mmHg 83%
    03:00 0°C° 0 mm 3 m/S 759 mmHg 83%
    04:00 -1°C° 0 mm 3 m/S 760 mmHg 82%
    05:00 -2°C° 0 mm 4 m/S 760 mmHg 82%
    06:00 -1°C° 0 mm 4 m/S 760 mmHg 81%
    07:00 -1°C° 0 mm 4 m/S 761 mmHg 79%
    08:00 -1°C° 0 mm 4 m/S 761 mmHg 78%
    09:00 0°C° 0 mm 5 m/S 761 mmHg 68%
    10:00 +2°C° 0 mm 5 m/S 761 mmHg 59%
    11:00 +3°C° 0 mm 6 m/S 761 mmHg 50%
    12:00 +4°C° 0 mm 6 m/S 761 mmHg 47%
    13:00 +4°C° 0 mm 6 m/S 761 mmHg 45%
    14:00 +5°C° 0 mm 6 m/S 760 mmHg 42%
    15:00 +4°C° 0 mm 6 m/S 760 mmHg 46%
    16:00 +3°C° 0 mm 6 m/S 760 mmHg 50%
    17:00 +2°C° 0 mm 5 m/S 760 mmHg 54%
    18:00 +1°C° 0 mm 5 m/S 761 mmHg 58%
    19:00 0°C° 0 mm 4 m/S 761 mmHg 63%
    20:00 -1°C° 0 mm 4 m/S 762 mmHg 68%
    21:00 -2°C° 0 mm 4 m/S 762 mmHg 69%
    22:00 -2°C° 0 mm 4 m/S 762 mmHg 71%
    23:00 -1°C° 0 mm 3 m/S 762 mmHg 72%

    25 Januar, Donnerstag

    Zeit Temperatur Niederschläge Wind Luftdruck Luftfeuchtigkeit
    00:00 -1°C° 0 mm 3 m/S 762 mmHg 72%
    01:00 -2°C° 0 mm 3 m/S 762 mmHg 72%
    02:00 -2°C° 0 mm 3 m/S 761 mmHg 73%
    03:00 -2°C° 0 mm 3 m/S 761 mmHg 72%
    04:00 -2°C° 0 mm 3 m/S 761 mmHg 72%
    05:00 -2°C° 0 mm 3 m/S 761 mmHg 72%
    06:00 -2°C° 0 mm 3 m/S 761 mmHg 71%
    07:00 -2°C° 0 mm 3 m/S 761 mmHg 70%
    08:00 -2°C° 0 mm 3 m/S 761 mmHg 69%
    09:00 -2°C° 0 mm 4 m/S 761 mmHg 60%
    10:00 0°C° 0 mm 5 m/S 761 mmHg 51%
    11:00 +1°C° 0 mm 6 m/S 760 mmHg 42%
    12:00 +2°C° 0 mm 6 m/S 760 mmHg 41%
    13:00 +2°C° 0 mm 6 m/S 759 mmHg 41%
    14:00 +2°C° 0 mm 7 m/S 758 mmHg 41%
    15:00 +2°C° 0 mm 6 m/S 758 mmHg 45%
    16:00 +1°C° 0 mm 6 m/S 758 mmHg 50%
    17:00 0°C° 0 mm 5 m/S 758 mmHg 55%
    18:00 -1°C° 0 mm 5 m/S 758 mmHg 62%
    19:00 -2°C° 0 mm 4 m/S 758 mmHg 69%
    20:00 -3°C° 0 mm 4 m/S 758 mmHg 77%
    21:00 -2°C° 0 mm 3 m/S 758 mmHg 80%
    22:00 -2°C° 0 mm 3 m/S 758 mmHg 83%
    23:00 -2°C° 0 mm 3 m/S 758 mmHg 86%
    Mehr zeigen